Regional Weather Roundup
Issued by NWS

Home | Current Version | Previous Version | Graphics & Text | Print | Product List | Glossary On
Versions: 1 2 3 4 5 6 7 8 9 10 11 12 13 14 15 16 17 18 19 20 21 22 23 24 25 26 27 28 29 30 31 32 33 34 35 36 37 38 39 40 41 42 43 44 45 46 47 48 49 50
000
ASUS43 KDTX 200110
RWRMI
MICHIGAN HOURLY REGIONAL WEATHER ROUNDUP
NATIONAL WEATHER SERVICE DETROIT/PONTIAC MI
900 PM EDT WED JUL 19 2017

NOTE: "FAIR" INDICATES FEW OR NO CLOUDS BELOW 12,000 FEET WITH NO
SIGNIFICANT WEATHER AND/OR OBSTRUCTION TO VISIBILITY.

MIZ047>049-052>055-059>063-066>070-074>076-081>083-200200-
SOUTHEAST LOWER MICHIGAN

CITY           SKY/WX    TMP DP  RH WIND       PRES   REMARKS
ADRIAN         PTCLDY    81  71  71 CALM      30.06S
ALMA           PTCLDY    77  62  58 CALM      30.05R
ANN ARBOR      CLEAR     78  73  84 CALM      30.05R
BAD AXE        CLEAR     71  60  66 CALM      30.06S
CARO           CLOUDY    72  66  82 CALM      30.04S
DETROIT CITY   CLEAR     81  71  71 SW7       30.04R
DETROIT        PTCLDY    80  71  74 W6        30.05R
FLINT          CLEAR     81  65  58 VRB5      30.04S
GROSSE ILE     CLEAR     78  71  79 SW6       30.03S
HILLSDALE      PTCLDY    79  70  73 CALM      30.06S
HOWELL         CLEAR     78  70  76 CALM      30.05S

CITY           SKY/WX    TMP DP  RH WIND       PRES   REMARKS
JACKSON        CLEAR     80  69  69 SW3       30.06R
LAMBERTVILLE   CLOUDY    75  73  93 CALM      30.04F
LANSING        CLEAR     82  69  64 CALM      30.05R
LAPEER         FAIR      76  68  77 E5        30.06R
MASON          CLEAR     78  71  79 CALM      30.06S
MONROE         CLEAR     75  73  92 W3        30.04S
MT. CLEMENS    MOCLDY    77  69  77 NE8       30.04S
PONTIAC        MOCLDY    82  69  64 N3        30.05R
PORT HOPE        N/A     70  66  87 SE7       30.05S
PORT HURON     PTCLDY    72  64  78 CALM      30.06S
TRI CITIES     PTCLDY    79  68  69 SE3       30.04S
MIDLAND        FAIR      73  64  73 NW3       30.04R
TROY           CLEAR     85  66  54 NW5       30.06R
SAGINAW HB     CLOUDY    77  61  57 CALM      30.03S
$$
MIZ043>046-050>051-056>058-064>065-071>073-077>080-200200-
SOUTHWEST LOWER MICHIGAN

CITY           SKY/WX    TMP DP  RH WIND       PRES   REMARKS
BATTLE CREEK   CLEAR     81  73  76 W6        30.06S
BENTON HARBOR  CLEAR     75  68  78 NW3       30.05S
BIG RAPIDS     PTCLDY    73  61  64 CALM      30.05S
COLDWATER      CLEAR     80  74  82 CALM      30.06S
FREMONT        FAIR      76  61  60 CALM      30.05S
HOLLAND        CLEAR     73  61  65 W5        30.07R
GRAND RAPIDS   CLOUDY    80  70  71 W8        30.04S
IONIA          FAIR      80  69  70 CALM      30.04S
KALAMAZOO      CLEAR     80  69  69 SW3       30.05S
LUDINGTON      CLOUDY    68  61  78 CALM      30.05R
MARSHALL       CLEAR     77  77  98 CALM      30.06R
MOUNT PLEASANT CLOUDY    76  62  62 CALM      30.05R
MUSKEGON       MOCLDY    78  62  57 NW5       30.05R
SOUTH HAVEN    PTCLDY    74  69  84 CALM      30.06R
$$
MIZ016>042-200200-
NORTHERN LOWER MICHIGAN

CITY           SKY/WX    TMP DP  RH WIND       PRES   REMARKS
ALPENA         CLEAR     73  60  63 CALM      30.03F
BEAVER ISLAND  PTCLDY    68  58  71 CALM      30.05R
BELLAIRE       PTCLDY    66  59  78 CALM      30.04S
CADILLAC       MOCLDY    72  59  64 CALM      30.07S
CHARLEVOIX     PTCLDY    72  55  56 CALM      30.07R
FRANKFORT      PTCLDY    69  62  77 CALM      30.05R
GAYLORD        CLEAR     74  49  41 CALM      30.07R
GRAYLING       CLEAR     69  56  62 CALM      30.08R
HARBOR SPRINGS CLEAR     68  61  78 CALM      30.04R
HOUGHTON LAKE  CLEAR     72  54  53 NW5       30.07S
MANISTEE       MOCLDY    69  63  81 NW5       30.04F
OSCODA         CLEAR     73  58  59 S6        30.04F
PELLSTON       CLEAR     69  58  67 CALM      30.05R
ROGERS CITY    PTCLDY    70  60  71 CALM      30.05R
TRAVERSE CITY  CLOUDY    73  56  54 CALM      30.03S
$$
MIZ007>008-015-200200-
EASTERN UPPER MICHIGAN

CITY           SKY/WX    TMP DP  RH WIND       PRES   REMARKS
MACKINAC ISLAN MOCLDY    69  57  66 W8        30.04R
NEWBERRY       PTCLDY    67  64  89 S5        30.02S
S. S. MARIE    PTCLDY    67  56  67 SW6       30.00F
MUNISING         N/A     70  61  73 S5        30.01S
$$
MIZ004>006-011>014-085-200200-
CENTRAL UPPER MICHIGAN

CITY           SKY/WX    TMP DP  RH WIND       PRES   REMARKS
MANISTIQUE     PTCLDY    66  61  85 S3        30.03R
ESCANABA       CLOUDY    72  64  76 S6        30.01F
MENOMINEE      CLOUDY    74  57  55 S9        30.01
SAWYER-GWINN   CLEAR     73  57  56 E7        30.03F
$$
MIZ001>003-009>011-084-200200-
WESTERN UPPER MICHIGAN

CITY           SKY/WX    TMP DP  RH WIND       PRES   REMARKS
IRON MOUNTAIN  CLOUDY    74  57  55 S6        30.00F
HOUGHTON       CLOUDY    69  58  67 E6        29.97F
COPPER HARBOR    N/A     60  52  74 CALM      29.98F
IRONWOOD       CLOUDY    75  64  68 CALM      29.94F
$$

ABBREVIATIONS USED IN REMARKS
   TC - TEMPERATURE IN CELSIUS
  WCI - WIND CHILL INDEX
   HX - HEAT INDEX
  VSB - VISIBILITY





USA.gov is the U.S. government's official web portal to all federal, state and local government web resources and services.